Location: Decatur(IL)
(39.8400°N, 88.9550°W)
Time: 18:00:30
(UTC-05:00)

Cosmos 1953 - Visible Passes

Search period start: 24 July 2014 00:00
Search period end: 03 August 2014 00:00
Orbit: 551 x 570 km, 82.5° (Epoch: 24 July)

Date Brightness Start Highest point End Pass type
(mag) Time Alt. Az. Time Alt. Az. Time Alt. Az.
24 Jul 4.8 02:38:16 13° ESE 02:39:25 15° E 02:41:44 10° NE visible
24 Jul 3.1 04:14:13 28° WSW 04:15:41 38° WNW 04:19:33 10° N visible
25 Jul 4.6 02:37:41 17° E 02:38:27 18° E 02:41:13 10° NE visible
25 Jul 3.3 04:13:39 27° WSW 04:14:49 32° WNW 04:18:32 10° NNW visible
26 Jul 4.4 02:37:05 21° E 02:37:29 21° E 02:40:36 10° NE visible
26 Jul 3.5 04:13:03 24° W 04:13:57 27° WNW 04:17:29 10° NNW visible
27 Jul 4.1 02:36:28 25° E 02:36:32 25° E 02:39:55 10° NE visible
27 Jul 3.8 04:12:26 22° W 04:13:06 22° WNW 04:16:23 10° NNW visible
28 Jul 3.9 02:35:50 30° E 02:35:50 30° E 02:39:12 10° NNE visible
28 Jul 4.0 04:11:47 19° W 04:12:15 19° WNW 04:15:14 10° NNW visible
29 Jul 3.8 02:35:11 34° ENE 02:35:11 34° ENE 02:38:25 10° NNE visible
29 Jul 4.2 04:11:08 16° WNW 04:11:25 16° WNW 04:14:01 10° NNW visible
30 Jul 3.6 02:34:30 38° ENE 02:34:30 38° ENE 02:37:37 10° NNE visible
30 Jul 4.5 04:10:28 14° WNW 04:10:35 14° WNW 04:12:41 10° NW visible
31 Jul 3.6 02:33:49 41° NE 02:33:49 41° NE 02:36:47 10° NNE visible
31 Jul 4.7 04:09:46 11° WNW 04:09:46 11° WNW 04:11:06 10° NW visible
01 Aug 3.6 02:33:07 41° NNE 02:33:07 41° NNE 02:35:56 10° NNE visible
02 Aug 3.7 02:32:23 39° NNE 02:32:23 39° NNE 02:35:03 10° N visible
